Weather History for KMNH - November, 2013

Change the Weather History Date:

Wednesday, November 6, 2013

  Actual Average (KAPA) Record (KAPA)
Temperature  
Mean Temperature 30 °F -  
Max Temperature 46 °F 51 °F 75 °F (2010)
Min Temperature 14 °F 27 °F 17 °F (2000)
Degree Days  
Heating Degree Days 35    
Moisture  
Dew Point 8 °F    
Average Humidity 41    
Maximum Humidity 68    
Minimum Humidity 23    
Precipitation  
Precipitation 0.00 in - - ()
Sea Level Pressure  
Sea Level Pressure 30.22 in    
Wind  
Wind Speed 9 mph (WSW)    
Max Wind Speed 15 mph    
Max Gust Speed 28 mph    
Visibility 10 miles    
Events      
Averages and records for this station are not official NWS values.
T = Trace of Precipitation, MM = Missing Value Source: NWS Daily Summary

Daily Weather History Graph

Daily Weather History Graph

Search for Another Location

Airport or City:

Trip Planner

Search our weather history database for the weather conditions in past years. The results will help you decide how hot, cold, wet, or windy it might be!

Date:

Astronomy

Nov. 06, 2013 Rise Set
Actual Time 6:32 AM MST 4:51 PM MST
Civil Twilight 6:04 AM MST 5:19 PM MST
Nautical Twilight 5:32 AM MST 5:51 PM MST
Astronomical Twilight 5:00 AM MST 6:23 PM MST
Moon 9:48 AM MST (11/6) 7:59 PM MST (11/6)
Length of Visible Light 11h 15m
Length of Day
10h 19m
Waxing Crescent, 14% of the Moon is Illuminated
Nov 6
Waxing Crescent
Nov 9
First Quarter
Nov 17
Full
Nov 25
Last Quarter
Dec 2
New

Hourly Weather History & Observations

Time (MST) Temp. Windchill Dew Point Humidity Pressure Visibility Wind Dir Wind Speed Gust Speed Precip Events Conditions
12:12 AM 17.6 °F 5.7 °F 8.6 °F 68% 30.11 in 10.0 mi SSW 10.4 mph - N/A   Clear
12:32 AM 15.8 °F 4.2 °F 6.8 °F 68% 30.11 in 10.0 mi SSW 9.2 mph - N/A   Clear
12:52 AM 15.8 °F 5.1 °F 5.0 °F 62% 30.11 in 10.0 mi SSW 8.1 mph - N/A   Clear
1:12 AM 14.0 °F 2.9 °F 5.0 °F 67% 30.11 in 10.0 mi SSW 8.1 mph - N/A   Clear
1:32 AM 19.4 °F 6.6 °F 3.2 °F 49% 30.11 in 10.0 mi SW 12.7 mph - N/A   Clear
1:52 AM 21.2 °F 10.1 °F 1.4 °F 42% 30.11 in 10.0 mi SSW 10.4 mph - N/A   Clear
2:12 AM 19.4 °F 7.9 °F 1.4 °F 46% 30.12 in 10.0 mi WSW 10.4 mph - N/A   Clear
2:32 AM 21.2 °F 10.1 °F -0.4 °F 39% 30.12 in 10.0 mi SW 10.4 mph - N/A   Clear
2:52 AM 19.4 °F 10.4 °F 1.4 °F 46% 30.12 in 10.0 mi SSW 6.9 mph - N/A   Clear
3:12 AM 15.8 °F 5.1 °F 1.4 °F 53% 30.12 in 10.0 mi SSW 8.1 mph - N/A   Clear
3:32 AM 19.4 °F 7.9 °F -0.4 °F 42% 30.12 in 10.0 mi SSW 10.4 mph - N/A   Clear
3:52 AM 19.4 °F 9.5 °F -0.4 °F 42% 30.12 in 10.0 mi SSW 8.1 mph - N/A   Clear
4:12 AM 21.2 °F 10.1 °F -0.4 °F 39% 30.12 in 10.0 mi SSW 10.4 mph - N/A   Clear
4:32 AM 23.0 °F 11.7 °F -0.4 °F 36% 30.13 in 10.0 mi SW 11.5 mph - N/A   Clear
4:52 AM 23.0 °F 12.4 °F -0.4 °F 36% 30.12 in 10.0 mi SW 10.4 mph - N/A   Clear
5:11 AM 19.4 °F 9.5 °F 1.4 °F 46% 30.13 in 10.0 mi SSW 8.1 mph - N/A   Clear
5:32 AM 23.0 °F 12.4 °F 1.4 °F 39% 30.13 in 10.0 mi SW 10.4 mph - N/A   Clear
5:51 AM 23.0 °F 12.4 °F 1.4 °F 39% 30.13 in 10.0 mi SW 10.4 mph - N/A   Clear
6:12 AM 23.0 °F 12.4 °F 1.4 °F 39% 30.13 in 10.0 mi SW 10.4 mph - N/A   Clear
6:31 AM 23.0 °F 11.1 °F 3.2 °F 43% 30.14 in 10.0 mi SW 12.7 mph - N/A   Clear
6:51 AM 23.0 °F 13.1 °F 5.0 °F 46% 30.15 in 10.0 mi SW 9.2 mph - N/A   Clear
7:12 AM 28.4 °F 21.2 °F 5.0 °F 37% 30.16 in 10.0 mi SW 6.9 mph - N/A   Clear
7:32 AM 32.0 °F 24.8 °F 8.6 °F 38% 30.18 in 10.0 mi SW 8.1 mph - N/A   Clear
7:52 AM 33.8 °F 29.6 °F 8.6 °F 35% 30.18 in 10.0 mi WSW 4.6 mph - N/A   Clear
8:12 AM 33.8 °F 29.6 °F 10.4 °F 38% 30.19 in 10.0 mi WSW 4.6 mph - N/A   Clear
8:32 AM 33.8 °F 27.7 °F 10.4 °F 38% 30.19 in 10.0 mi SW 6.9 mph - N/A   Clear
8:52 AM 35.6 °F 29.2 °F 10.4 °F 35% 30.20 in 10.0 mi WSW 8.1 mph - N/A   Clear
9:12 AM 35.6 °F 29.2 °F 10.4 °F 35% 30.21 in 10.0 mi West 8.1 mph - N/A   Clear
9:32 AM 41.0 °F 35.8 °F 10.4 °F 29% 30.20 in 10.0 mi West 8.1 mph - N/A   Clear
9:51 AM 42.8 °F 40.1 °F 10.4 °F 27% 30.20 in 10.0 mi West 4.6 mph - N/A   Clear
10:12 AM 42.8 °F 37.0 °F 8.6 °F 25% 30.21 in 10.0 mi NW 10.4 mph 17.3 mph N/A   Clear
10:32 AM 42.8 °F 39.3 °F 8.6 °F 25% 30.20 in 10.0 mi NNW 5.8 mph 17.3 mph N/A   Clear
10:52 AM 44.6 °F 38.8 °F 8.6 °F 23% 30.21 in 10.0 mi WNW 11.5 mph - N/A   Scattered Clouds
11:12 AM 44.6 °F 38.8 °F 8.6 °F 23% 30.21 in 10.0 mi NNW 11.5 mph 18.4 mph N/A   Scattered Clouds
11:32 AM 44.6 °F 39.2 °F 10.4 °F 25% 30.21 in 10.0 mi WNW 10.4 mph 19.6 mph N/A   Scattered Clouds
11:51 AM 44.6 °F 39.7 °F 10.4 °F 25% 30.21 in 10.0 mi NNW 9.2 mph 16.1 mph N/A   Clear
12:12 PM 44.6 °F 40.7 °F 10.4 °F 25% 30.20 in 10.0 mi NNW 6.9 mph 20.7 mph N/A   Clear
12:31 PM 44.6 °F 38.4 °F 10.4 °F 25% 30.20 in 10.0 mi NNW 12.7 mph 20.7 mph N/A   Clear
12:52 PM 46.4 °F 41.1 °F 10.4 °F 23% 30.20 in 10.0 mi NW 11.5 mph 27.6 mph N/A   Clear
1:12 PM 44.6 °F 38.4 °F 10.4 °F 25% 30.21 in 10.0 mi NNW 12.7 mph 19.6 mph N/A   Scattered Clouds
1:32 PM 46.4 °F 40.4 °F 10.4 °F 23% 30.21 in 10.0 mi North 13.8 mph 23.0 mph N/A   Mostly Cloudy
1:52 PM 44.6 °F 37.8 °F 10.4 °F 25% 30.22 in 10.0 mi North 15.0 mph - N/A   Scattered Clouds
2:12 PM 44.6 °F 38.4 °F 10.4 °F 25% 30.23 in 10.0 mi NNW 12.7 mph 18.4 mph N/A   Clear
2:32 PM 44.6 °F 38.1 °F 10.4 °F 25% 30.23 in 10.0 mi NNW 13.8 mph 17.3 mph N/A   Clear
2:52 PM 44.6 °F 39.2 °F 10.4 °F 25% 30.23 in 10.0 mi North 10.4 mph - N/A   Clear
3:12 PM 44.6 °F 40.7 °F 10.4 °F 25% 30.23 in 10.0 mi NNW 6.9 mph 10.4 mph N/A   Clear
3:32 PM 42.8 °F 38.6 °F 10.4 °F 27% 30.24 in 10.0 mi NNW 6.9 mph 16.1 mph N/A   Clear
3:52 PM 42.8 °F 38.6 °F 10.4 °F 27% 30.24 in 10.0 mi North 6.9 mph - N/A   Clear
4:12 PM 41.0 °F 37.1 °F 12.2 °F 31% 30.24 in 10.0 mi North 5.8 mph - N/A   Clear
4:32 PM 37.4 °F 33.8 °F 10.4 °F 33% 30.25 in 10.0 mi North 4.6 mph - N/A   Clear
4:51 PM 35.6 °F 32.8 °F 10.4 °F 35% 30.26 in 10.0 mi North 3.5 mph - N/A   Clear
5:12 PM 33.8 °F 30.8 °F 10.4 °F 38% 30.27 in 10.0 mi NNE 3.5 mph - N/A   Clear
5:31 PM 33.8 °F 30.8 °F 10.4 °F 38% 30.28 in 10.0 mi North 3.5 mph - N/A   Clear
5:52 PM 32.0 °F - 10.4 °F 41% 30.29 in 10.0 mi Calm Calm - N/A   Clear
6:11 PM 30.2 °F - 10.4 °F 44% 30.29 in 10.0 mi Calm Calm - N/A   Clear
6:32 PM 32.0 °F - 10.4 °F 41% 30.29 in 10.0 mi Calm Calm - N/A   Clear
6:52 PM 26.6 °F 21.2 °F 10.4 °F 51% 30.30 in 10.0 mi South 4.6 mph - N/A   Clear
7:12 PM 26.6 °F 18.2 °F 10.4 °F 51% 30.31 in 10.0 mi South 8.1 mph - N/A   Clear
7:32 PM 23.0 °F 15.8 °F 10.4 °F 59% 30.31 in 10.0 mi South 5.8 mph - N/A   Clear
7:52 PM 26.6 °F 18.2 °F 10.4 °F 51% 30.32 in 10.0 mi South 8.1 mph - N/A   Clear
8:12 PM 23.0 °F 17.0 °F 10.4 °F 59% 30.33 in 10.0 mi SSW 4.6 mph - N/A   Clear
8:31 PM 26.6 °F 19.1 °F 10.4 °F 51% 30.33 in 10.0 mi South 6.9 mph - N/A   Clear
8:52 PM 24.8 °F 16.9 °F 10.4 °F 54% 30.33 in 10.0 mi South 6.9 mph - N/A   Clear
9:12 PM 23.0 °F 13.9 °F 10.4 °F 59% 30.34 in 10.0 mi SSE 8.1 mph - N/A   Clear
9:32 PM 23.0 °F 13.9 °F 10.4 °F 59% 30.34 in 10.0 mi South 8.1 mph - N/A   Clear
9:52 PM 23.0 °F 13.1 °F 12.2 °F 63% 30.34 in 10.0 mi South 9.2 mph - N/A   Clear
10:12 PM 21.2 °F 12.6 °F 10.4 °F 63% 30.34 in 10.0 mi SSW 6.9 mph - N/A   Clear
10:31 PM 23.0 °F 13.1 °F 12.2 °F 63% 30.34 in 10.0 mi SSE 9.2 mph - N/A   Clear
10:52 PM 24.8 °F 16.1 °F 10.4 °F 54% 30.35 in 10.0 mi South 8.1 mph - N/A   Clear
11:12 PM 24.8 °F 16.1 °F 12.2 °F 59% 30.34 in 10.0 mi South 8.1 mph - N/A   Clear
11:31 PM 24.8 °F 16.1 °F 10.4 °F 54% 30.35 in 10.0 mi South 8.1 mph - N/A   Clear
11:51 PM 26.6 °F 16.8 °F 12.2 °F 55% 30.35 in 10.0 mi South 10.4 mph - N/A   Clear